Home > Time Zones > World Clock > Weather > Peru > Ica > Past weeks

Flag for Peru Weather past 2 weeks in Ica, Ica, Peru

Now
63 °F

Passing clouds.


Feels Like: 63 °F
Forecast: 61 / 85 °F
Wind: 13 mph from Northwest

Location: Pisco Airport

Current Time: Jul 31, 2014 at 7:16:08 PM

Latest Report: Jul 31, 2014 at 6:00 PM


Visibility: 4 mi

Pressure: 29.89 "Hg

Humidity: 88%

Dew point: 59 °F

Location of IcaLocation

Historic Weather in Ica — Graph

°F

Ica temperature yesterday

Maximum temperature yesterday: 66 °F (at 12:00 PM)
Minimum temperature yesterday: 57 °F (at 7:00 AM)
Average temperature yesterday: 61 °F

Past Weeks' High & Low Weather Summary

 TemperatureHumidityPressure
High72 °F (Jul 23, 3:00 PM)94% (Jul 18, 10:00 PM)30.07 "Hg (Jul 18, 10:00 PM)
Low52 °F (Jul 26, 3:00 AM)64% (Jul 17, 2:00 PM)29.86 "Hg (Jul 23, 3:00 PM)
Average62 °F83%29.97 "Hg
* Reported Jul 16 6:00 PM — Jul 31 6:00 PM, Ica, Weather by CustomWeather, © 2014

Note: Actual official high and low records may vary slightly from our data, if they occured in-between our weather recording intervals... More about our weather records

Advertising

Ica weather history for previous 24 hours

 ConditionsComfort  
Time TempWeatherWind HumidityBarometerVisibility
6:00 PM
Jul 31
63 °FPassing clouds.13 mph88%29.89 "Hg4 mi
5:00 PM64 °FPartly sunny.13 mph78%29.89 "Hg4 mi
4:00 PM66 °FPartly sunny.12 mph78%29.89 "Hg3 mi
3:00 PM66 °FHaze.9 mph78%29.89 "Hg3 mi
2:00 PM66 °FHaze.9 mph78%29.89 "Hg3 mi
1:00 PM66 °FHaze.10 mph78%29.92 "Hg3 mi
12:00 PM66 °FHaze.9 mph78%29.92 "Hg3 mi
11:00 AM64 °FHaze.7 mph78%29.95 "Hg3 mi
10:00 AM63 °FFog.6 mph83%29.95 "Hg2 mi
9:00 AM63 °FFog.2 mph83%29.95 "Hg2 mi
8:00 AM57 °FFog.8 mph88%29.92 "Hg2 mi
7:00 AM52 °FFog.5 mph94%29.95 "Hg2 mi
6:00 AM54 °FClear.6 mph88%29.92 "Hg4 mi
5:00 AM52 °FClear.5 mph94%29.92 "Hg4 mi
4:00 AM52 °FClear.3 mph94%29.92 "Hg4 mi
3:00 AM54 °FClear.3 mph88%29.95 "Hg4 mi
2:00 AM54 °FClear.3 mph94%29.95 "Hg4 mi
1:00 AM55 °FClear.No wind88%29.98 "Hg4 mi
12:00 AM55 °FClear.6 mph88%29.98 "Hg4 mi
11:00 PM
Jul 30
57 °FClear.9 mph88%29.98 "Hg4 mi
10:00 PM59 °FClear.1 mph82%29.98 "Hg4 mi
9:00 PM61 °FClear.6 mph83%29.95 "Hg4 mi
8:00 PM61 °FPassing clouds.9 mph88%29.95 "Hg4 mi
7:00 PM63 °FPassing clouds.13 mph83%29.95 "Hg4 mi
Weather by CustomWeather, © 2014

See weather overviewHow to use our weather pages